Regional Weather Roundup
Issued by NWS

Home | Current Version | Previous Version | Text Only | Print | Product List | Glossary On
Versions: 1 2 3 4 5 6 7 8 9 10 11 12 13 14 15 16 17 18 19 20 21 22 23 24 25 26 27 28 29 30 31 32 33 34 35 36 37 38 39 40 41 42 43 44 45 46 47 48 49 50
000
ASUS43 KBIS 160310
RWRND

NORTH DAKOTA REGIONAL WEATHER ROUNDUP
NATIONAL WEATHER SERVICE BISMARCK ND
900 PM CST FRI DEC 15 2017

NOTE: "FAIR" INDICATES FEW OR NO CLOUDS BELOW 12,000 FEET WITH NO
SIGNIFICANT WEATHER AND/OR OBSTRUCTIONS TO VISIBILITY.


NDZ001>003-009>011-017-160400-
NORTHWEST NORTH DAKOTA

CITY           SKY/WX    TMP DP  RH WIND       PRES   REMARKS
WILLISTON      MOCLDY    41  32  70 W8        29.60R
MINOT          CLOUDY    42  32  67 NW12      29.51S
MINOT AFB      DRIZZLE   40  32  75 NW9       29.50S
$$

NDZ018>021-031>035-040>046-160400-
SOUTHWEST NORTH DAKOTA

CITY           SKY/WX    TMP DP  RH WIND       PRES   REMARKS
BISMARCK       MOCLDY    41  26  55 W9        29.57R
DICKINSON      PTCLDY    34  22  61 W9        29.58R
GARRISON         N/A     41  27  57 W12       29.54R
HETTINGER ARPT CLOUDY    31  19  61 NW7       29.62S
$$

NDZ004>008-012>016-024-026-027-054-160400-
NORTHEAST NORTH DAKOTA

CITY           SKY/WX    TMP DP  RH WIND       PRES   REMARKS
GRAND FORKS    LGT SNOW  22  21  96 E10       29.62F FOG     WCI  11
GRND FRKS AFB  LGT SNOW  23  21  93 SE9       29.61S FOG     WCI  13
DEVILS LAKE    CLOUDY    26  25  96 SE10      29.53F WCI  16
$$

NDZ022-023-025-028>030-036>039-047>053-160400-
SOUTHEAST NORTH DAKOTA

CITY           SKY/WX    TMP DP  RH WIND       PRES   REMARKS
FARGO          CLOUDY    29  28  96 SE10      29.59S WCI  20
JAMESTOWN      CLOUDY    32  30  92 S6        29.51F
$$




USA.gov is the U.S. government's official web portal to all federal, state and local government web resources and services.